Westhampton Beach, NY

4:51 AM EDT on May 28, 2018 (GMT -0400)
The Gabreski

Weather History for KFOK - December, 2012

Change the Weather History Date:

Saturday, December 1, 2012

  Actual Average Record
Temperature  
Mean Temperature 44 °F -  
Max Temperature 48 °F 47 °F 64 °F (2001)
Min Temperature 39 °F 27 °F 23 °F (2007)
Degree Days  
Heating Degree Days 22    
Moisture  
Dew Point 37 °F    
Average Humidity 80    
Maximum Humidity 89    
Minimum Humidity 70    
Precipitation  
Precipitation 0.00 in - - ()
Sea Level Pressure  
Sea Level Pressure 30.49 in    
Wind  
Wind Speed 9 mph (NE)    
Max Wind Speed 16 mph    
Max Gust Speed 22 mph    
Visibility 10 miles    
Events      
Averages and records for this station are not official NWS values.
T = Trace of Precipitation, MM = Missing Value Source: NWS Daily Summary

Daily Weather History Graph

Daily Weather History Graph

Search for Another Location

Airport or City:

Astronomy

Dec. 01, 2012 Rise Set
Actual Time 6:56 AM EST 4:23 PM EST
Civil Twilight 6:25 AM EST 4:53 PM EST
Nautical Twilight 5:51 AM EST 5:27 PM EST
Astronomical Twilight 5:18 AM EST 6:00 PM EST
Moon 7:10 PM EST (12/1) 9:06 AM EST (12/1)
Length of Visible Light 10h 28m
Length of Day
9h 27m
Waning Gibbous, 92% of the Moon is Illuminated
Dec 1
Waning Gibbous
Dec 6
Last Quarter
Dec 13
New
Dec 20
First Quarter
Dec 28
Full

Hourly Weather History & Observations

Time (EST) Temp. Windchill Dew Point Humidity Pressure Visibility Wind Dir Wind Speed Gust Speed Precip Events Conditions
12:53 AM 39.0 °F 33.4 °F 30.0 °F 70% 30.48 in 10.0 mi ENE 8.1 mph - N/A   Overcast
1:53 AM 39.0 °F 32.8 °F 30.0 °F 70% 30.49 in 10.0 mi ENE 9.2 mph - N/A   Overcast
2:53 AM 39.9 °F 33.9 °F 30.9 °F 70% 30.49 in 10.0 mi NE 9.2 mph - N/A   Overcast
3:53 AM 39.9 °F 32.9 °F 30.9 °F 70% 30.49 in 10.0 mi NE 11.5 mph 19.6 mph N/A   Overcast
4:53 AM 39.9 °F 34.5 °F 32.0 °F 73% 30.49 in 10.0 mi ENE 8.1 mph - N/A   Overcast
5:53 AM 39.9 °F 35.1 °F 32.0 °F 73% 30.50 in 10.0 mi ENE 6.9 mph - N/A   Overcast
6:53 AM 42.1 °F 36.6 °F 34.0 °F 73% 30.51 in 10.0 mi ENE 9.2 mph - N/A   Overcast
7:14 AM 42.8 °F 38.6 °F 35.6 °F 76% 30.51 in 10.0 mi ENE 6.9 mph - N/A   Overcast
7:53 AM 43.0 °F 38.8 °F 36.0 °F 76% 30.53 in 10.0 mi NE 6.9 mph - N/A   Overcast
8:53 AM 39.9 °F 31.4 °F 34.0 °F 79% 30.54 in 10.0 mi NE 16.1 mph 21.9 mph N/A   Overcast
9:05 AM 39.2 °F 33.0 °F 33.8 °F 81% 30.54 in 10.0 mi NE 9.2 mph - N/A   Overcast
9:53 AM 39.9 °F 32.5 °F 34.0 °F 79% 30.54 in 10.0 mi NNE 12.7 mph - N/A   Overcast
10:22 AM 41.0 °F 35.2 °F 35.6 °F 81% 30.53 in 10.0 mi NE 9.2 mph 17.3 mph N/A   Overcast
10:53 AM 41.0 °F 34.7 °F 35.1 °F 79% 30.53 in 10.0 mi NNE 10.4 mph - N/A   Overcast
11:53 AM 43.0 °F 39.5 °F 37.9 °F 82% 30.49 in 10.0 mi NE 5.8 mph - N/A   Overcast
12:53 PM 46.0 °F 42.5 °F 39.9 °F 79% 30.48 in 10.0 mi East 6.9 mph - N/A   Overcast
1:53 PM 43.0 °F 38.2 °F 39.9 °F 89% 30.47 in 8.0 mi NNE 8.1 mph - N/A   Overcast
2:53 PM 43.0 °F 37.7 °F 39.9 °F 89% 30.47 in 10.0 mi North 9.2 mph - N/A   Overcast
3:53 PM 43.0 °F 37.2 °F 39.0 °F 86% 30.46 in 10.0 mi NE 10.4 mph - N/A   Overcast
4:53 PM 43.0 °F 37.2 °F 39.9 °F 89% 30.48 in 10.0 mi NE 10.4 mph - N/A   Overcast
5:53 PM 43.0 °F 36.8 °F 39.9 °F 89% 30.49 in 10.0 mi NE 11.5 mph - 0.00 in   Overcast
6:53 PM 44.1 °F 40.8 °F 39.9 °F 85% 30.49 in 10.0 mi NE 5.8 mph - N/A   Overcast
7:53 PM 45.0 °F 41.8 °F 41.0 °F 86% 30.47 in 10.0 mi NNE 5.8 mph - N/A   Overcast
8:53 PM 45.0 °F 41.2 °F 41.0 °F 86% 30.45 in 10.0 mi NNW 6.9 mph - N/A   Overcast
9:53 PM 46.0 °F 43.9 °F 42.1 °F 86% 30.45 in 10.0 mi NNW 4.6 mph - N/A   Overcast
10:53 PM 48.0 °F - 45.0 °F 89% 30.44 in 10.0 mi NNE 5.8 mph - N/A   Overcast
11:53 PM 48.0 °F - 44.1 °F 86% 30.43 in 10.0 mi NNE 5.8 mph - N/A   Overcast